Madisonville, KY

6:08 PM CST on December 15, 2019 (GMT -0600)
Madisonville

Weather History for K2I0 - October, 2019

Change the Weather History Date:

Tuesday, October 15, 2019

  Actual Average (KOWB) Record (KOWB)
Temperature  
Mean Temperature 57 °F -  
Max Temperature 71 °F 73 °F 89 °F (1963)
Min Temperature 45 °F 48 °F 31 °F (1937)
Degree Days  
Heating Degree Days 8    
Growing Degree Days 7 (Base 50)    
Moisture  
Dew Point 46 °F    
Average Humidity 80    
Maximum Humidity 97    
Minimum Humidity 44    
Precipitation  
Precipitation 0.00 in - - ()
Sea Level Pressure  
Sea Level Pressure 30.05 in    
Wind  
Wind Speed 1 mph ()    
Max Wind Speed 10 mph    
Max Gust Speed -    
Visibility 9.4 miles    
Events      
Averages and records for this station are not official NWS values.
T = Trace of Precipitation, MM = Missing Value Source: Averaged Metar Reports

Daily Weather History Graph

Daily Weather History Graph

Search for Another Location

Airport or City:

Astronomy

Oct. 15, 2019 Rise Set
Actual Time 6:57 AM CDT 6:12 PM CDT
Civil Twilight 6:31 AM CDT 6:39 PM CDT
Nautical Twilight 6:00 AM CDT 7:09 PM CDT
Astronomical Twilight 5:30 AM CDT 7:39 PM CDT
Moon 7:34 PM CDT (10/15) 8:26 AM CDT (10/15)
Length of Visible Light 12h 07m
Length of Day
11h 15m
Full, 97% of the Moon is Illuminated
Oct 15
Full
Oct 21
Last Quarter
Oct 27
New
Nov 4
First Quarter
Nov 12
Full

Hourly Weather History & Observations

Time (CDT) Temp. Dew Point Humidity Pressure Visibility Wind Dir Wind Speed Gust Speed Precip Events Conditions
12:15 AM 47.5 °F 44.2 °F 89% 30.08 in 10.0 mi Calm Calm - N/A   Clear
12:35 AM 47.1 °F 44.1 °F 89% 30.07 in 7.0 mi Calm Calm - N/A   Clear
12:55 AM 47.3 °F 44.6 °F 90% 30.07 in 10.0 mi Calm Calm - N/A   Clear
1:15 AM 47.3 °F 43.7 °F 87% 30.07 in 10.0 mi Calm Calm - N/A   Clear
1:35 AM 47.8 °F 44.6 °F 89% 30.07 in 10.0 mi Calm Calm - N/A   Clear
1:55 AM 46.6 °F 43.0 °F 87% 30.07 in 4.0 mi Calm Calm - N/A   Clear
2:15 AM 46.2 °F 44.8 °F 95% 30.07 in 7.0 mi Calm Calm - N/A   Clear
2:35 AM 45.5 °F 44.1 °F 95% 30.07 in 2.5 mi Calm Calm - N/A   Clear
2:55 AM 45.3 °F 44.6 °F 97% 30.07 in 10.0 mi Calm Calm - N/A   Clear
3:15 AM 45.5 °F 42.8 °F 90% 30.06 in 10.0 mi Calm Calm - N/A   Scattered Clouds
3:35 AM 46.4 °F 43.2 °F 88% 30.05 in 10.0 mi Calm Calm - N/A   Mostly Cloudy
3:55 AM 46.0 °F 42.1 °F 86% 30.05 in 10.0 mi Calm Calm - N/A   Scattered Clouds
4:15 AM 45.5 °F 41.5 °F 86% 30.05 in 10.0 mi Calm Calm - N/A   Scattered Clouds
4:35 AM 46.9 °F 44.8 °F 92% 30.05 in 10.0 mi Calm Calm - N/A   Overcast
4:55 AM 49.1 °F 46.0 °F 89% 30.04 in 10.0 mi Calm Calm - N/A   Overcast
5:15 AM 49.6 °F 45.5 °F 86% 30.05 in 10.0 mi Calm Calm - N/A   Overcast
5:35 AM 49.6 °F 45.7 °F 86% 30.05 in 10.0 mi Calm Calm - N/A   Overcast
5:55 AM 50.5 °F 46.6 °F 86% 30.05 in 10.0 mi Calm Calm - N/A   Overcast
6:15 AM 51.1 °F 46.8 °F 85% 30.05 in 10.0 mi Calm Calm - N/A   Mostly Cloudy
6:35 AM 50.0 °F 45.9 °F 86% 30.04 in 10.0 mi Calm Calm - N/A   Scattered Clouds
6:55 AM 48.9 °F 45.0 °F 86% 30.04 in 10.0 mi Calm Calm - N/A   Mostly Cloudy
7:15 AM 48.7 °F 45.9 °F 90% 30.04 in 10.0 mi Calm Calm - N/A   Overcast
7:35 AM 50.5 °F 46.8 °F 87% 30.04 in 10.0 mi Calm Calm - N/A   Mostly Cloudy
7:55 AM 51.1 °F 47.1 °F 86% 30.04 in 10.0 mi Calm Calm - N/A   Scattered Clouds
8:15 AM 53.6 °F 48.2 °F 82% 30.04 in 10.0 mi Calm Calm - N/A   Clear
8:35 AM 57.2 °F 47.7 °F 70% 30.04 in 10.0 mi Calm Calm - N/A   Clear
8:55 AM 59.0 °F 47.1 °F 65% 30.04 in 10.0 mi South 6.9 mph - N/A   Scattered Clouds
9:15 AM 61.5 °F 46.9 °F 59% 30.03 in 10.0 mi South 8.1 mph - N/A   Scattered Clouds
9:35 AM 64.4 °F 47.7 °F 55% 30.03 in 10.0 mi SSW 8.1 mph - N/A   Clear
9:55 AM 66.2 °F 48.2 °F 52% 30.02 in 10.0 mi SSW 9.2 mph - N/A   Clear
10:15 AM 68.9 °F 48.6 °F 48% 30.01 in 10.0 mi SSW 8.1 mph - N/A   Clear
10:35 AM 69.8 °F 47.5 °F 45% 30.00 in 10.0 mi SSW 9.2 mph - N/A   Clear
10:55 AM 71.4 °F 48.4 °F 44% 29.98 in 10.0 mi SSW 10.4 mph - N/A   Clear